Flag for Vatican City State Weather past 2 weeks in Vatican City, Vatican City State

Now
79 °F

Clear.


Feels Like: 80 °F
Forecast: 71 / 96 °F
Wind: 5 mph from Southeast

Location: Rome / Ciampino

Current Time: Aug 4, 2015 at 12:12:37 AM

Latest Report: Aug 3, 2015 at 11:20 PM


Visibility: 10 mi

Pressure: 29.95 "Hg

Humidity: 58%

Dew point: 63 °F

Location of Vatican CityLocation

Historic Weather in Vatican City — Graph

°F

Vatican City temperature yesterday

Maximum temperature yesterday: 93 °F (at 2:50 PM)
Minimum temperature yesterday: 73 °F (at 1:50 AM)
Average temperature yesterday: 85 °F

Past Weeks' High & Low Weather Summary

 TemperatureHumidityPressure
High97 °F (Jul 20, 1:20 PM)89% (Jul 21, 3:50 AM)30.01 "Hg (Jul 21, 3:50 AM)
Low66 °F (Jul 29, 3:50 AM)28% (Jul 20, 12:50 PM)29.74 "Hg (Jul 30, 6:50 PM)
Average82 °F59%29.87 "Hg
* Reported Jul 19 10:20 PM — Aug 3 10:20 PM, Vatican City, Weather by CustomWeather, © 2015

Note: Actual official high and low records may vary slightly from our data, if they occured in-between our weather recording intervals... More about our weather records

Advertising

Vatican City weather history for previous 24 hours

 ConditionsComfort  
Time TempWeatherWind HumidityBarometerVisibility
10:20 PM
Mon, Aug 3
81 °FClear.3 mph54%29.95 "Hg10 mi
9:50 PM81 °FClear.5 mph51%29.95 "Hg10 mi
9:20 PM84 °FSunny.3 mph45%29.92 "Hg10 mi
8:50 PM84 °FPassing clouds.3 mph45%29.92 "HgN/A
8:20 PM86 °FPassing clouds.5 mph43%29.92 "HgN/A
7:50 PM86 °FSunny.3 mph43%29.92 "Hg10 mi
7:20 PM88 °FPassing clouds.7 mph38%29.92 "HgN/A
6:50 PM88 °FPassing clouds.8 mph40%29.92 "HgN/A
6:20 PM90 °FPassing clouds.8 mph43%29.92 "HgN/A
5:50 PM90 °FPassing clouds.7 mph38%29.92 "HgN/A
5:20 PM91 °FPassing clouds.8 mph38%29.92 "HgN/A
4:50 PM91 °FPassing clouds.9 mph36%29.92 "HgN/A
4:20 PM91 °FPassing clouds.8 mph38%29.92 "HgN/A
3:50 PM91 °FPassing clouds.7 mph38%29.95 "HgN/A
3:20 PM91 °FPassing clouds.7 mph34%29.95 "HgN/A
2:50 PM93 °FPassing clouds.7 mph34%29.95 "HgN/A
2:20 PM91 °FPassing clouds.8 mph36%29.95 "HgN/A
1:50 PM90 °FPassing clouds.9 mph41%29.95 "HgN/A
1:20 PM91 °FPassing clouds.7 mph41%29.95 "HgN/A
12:50 PM91 °FPassing clouds.8 mph44%29.95 "HgN/A
12:20 PM90 °FSunny.8 mph46%29.95 "Hg10 mi
11:20 AM90 °FSunny.7 mph41%29.95 "Hg10 mi
10:50 AM90 °FSunny.2 mph41%29.95 "Hg10 mi
10:20 AM86 °FSunny.3 mph46%29.95 "Hg10 mi
9:50 AM84 °FSunny.3 mph48%29.95 "Hg10 mi
9:20 AM81 °FSunny.2 mph51%29.95 "Hg10 mi
8:50 AM79 °FSunny.5 mph58%29.95 "Hg10 mi
8:20 AM77 °FSunny.7 mph57%29.95 "Hg10 mi
7:50 AM75 °FSunny.6 mph61%29.95 "Hg10 mi
7:20 AM73 °FSunny.6 mph69%29.95 "Hg10 mi
1:50 AM73 °FClear.2 mph69%29.95 "Hg10 mi
1:20 AM75 °FClear.2 mph65%29.98 "Hg10 mi
12:50 AM75 °FClear.3 mph65%29.98 "Hg10 mi
12:20 AM77 °FClear.2 mph61%29.98 "Hg10 mi
Weather by CustomWeather, © 2015

See weather overviewHow to use our weather pages